[ hide orbit diagram ]
For accurate long-term ephemerides, please instead use our Horizons system.This orbit viewer was implemented using two-body methods, and hence should not be used for determining accurate long-term trajectories (over several years or decades) or planetary encounter circumstances.
Orbital Elements at Epoch 2459200.5 (2020-Dec-17.0) TDB
Reference: JPL 31 (heliocentric ecliptic J2000)
Element | Value | Uncertainty (1-sigma) | Units |
e | .1899319856787467 | 3.4381e-08 | |
a | 2.278860214956157 | 7.0962e-09 | au |
q | 1.846031769245239 | 8.0461e-08 | au |
i | 4.134647253235553 | 3.6489e-06 | deg |
node | 221.5811531646652 | 4.8013e-05 | deg |
peri | 125.5419736305688 | 4.885e-05 | deg |
M | 79.63918296759215 | 9.7915e-06 | deg |
tp | 2458922.529152234484 (2020-Mar-14.02915223) | 3.3718e-05 | TDB |
period | 1256.536060098802 3.44 | 5.8692e-06 1.607e-08 | d yr |
n | .2865019249600311 | 1.3382e-09 | deg/d |
Q | 2.711688660667076 | 8.444e-09 | au |
|
| | Orbit Determination Parameters
Additional Information
|
[ show covariance matrix ]
Physical Parameter Table
Parameter |
Symbol |
Value |
Units |
Sigma |
Reference |
Notes |
absolute magnitude |
H |
14.93 |
|
n/a |
E2021B10 |
|
|
23722 Gulak | Discovered 1998 Apr. 20 by the Lincoln Laboratory Near-Earth Asteroid Research Team in Socorro. |
Benjamin Poss Gulak (b. 1989) was awarded second place in the 2007 Intel International Science and Engineering Fair for his electrical and mechanical engineering team project. He attends the Chisholm Collegiate, Oakville, Ontario, Canada. |
NOTE: some special characters may not display properly (any characters within {} are an attempt to place the proper accent above a character) |
Reference: 20070828/MPCPages.arc | Last Updated: 2007-08-30 |
|
[ show close-approach data ]
|